Location: Boursonne
(49.2024°N, 3.0468°E)
Time: 01:01:08
(UTC+00:00)

Meteor 1-13 Rocket - Pass Details

Date: 03 March 2021
Orbit: 830 x 913 km, 81.3° (Epoch: 12 April)

Event Time Altitude Azimuth Distance (km) Brightness Sun altitude
Rises 19:34:53 0° 347° (NNW) 3,560 7.8 -20.4°
Reaches altitude 10° 19:37:22 10° 347° (NNW) 2,611 7.1 -20.7°
Maximum altitude 19:43:21 84° 261° (W) 917 4.3 -21.7°
Enters shadow 19:48:37 13° 173° (S) 2,336 6.3 -22.5°
